{"data":{"norad_id":54089,"epoch":"2026-09-20T22:00:03.000096Z","epoch_age_seconds":53149,"freshness":"FRESH","line1":"1 54089U 22136AQ  26263.91670139  .00009053  00000+0  33025-3 0  9997","line2":"2 54089  53.1615 175.6226 0001953  74.9186  54.5785 15.28897419  5802","mean_motion":15.28897419,"eccentricity":0.0001953,"inclination_deg":53.1615,"raan_deg":175.6226,"arg_perigee_deg":74.9186,"mean_anomaly_deg":54.5785,"bstar":0.00033025,"rev_number":580,"period_min":94.1855210235,"perigee_km":477.76788275821,"apogee_km":480.44632230466,"semimajor_km":6857.2441025314,"source":"CELESTRAK","updated_at":"2026-09-21T09:00:33.082985Z"}}